Weather History for KPQL - September, 2013

Change the Weather History Date:

Tuesday, September 17, 2013

  Actual Average Record
Temperature  
Mean Temperature 81 °F -  
Max Temperature 91 °F 87 °F - (-1)
Min Temperature 71 °F 70 °F - (-1)
Cooling Degree Days 16    
Growing Degree Days 31 (Base 50)    
Moisture  
Dew Point 72 °F    
Average Humidity 83    
Maximum Humidity 100    
Minimum Humidity 52    
Precipitation  
Precipitation 0.26 in - - ()
Sea Level Pressure  
Sea Level Pressure 30.03 in    
Wind  
Wind Speed 3 mph (ENE)    
Max Wind Speed 23 mph    
Max Gust Speed 30 mph    
Visibility 8 miles    
Events Rain , Thunderstorm    
Averages and records for this station are not official NWS values.
T = Trace of Precipitation, MM = Missing Value Source: NWS Daily Summary

Daily Weather History Graph

Daily Weather History Graph

Search for Another Location

Airport or City:

Trip Planner

Search our weather history database for the weather conditions in past years. The results will help you decide how hot, cold, wet, or windy it might be!

Date:

Astronomy

Sep. 17, 2013 Rise Set
Actual Time 6:39 AM CDT 6:56 PM CDT
Civil Twilight 6:15 AM CDT 7:20 PM CDT
Nautical Twilight 5:47 AM CDT 7:48 PM CDT
Astronomical Twilight 5:19 AM CDT 8:17 PM CDT
Moon 5:40 PM CDT (9/17) 4:40 AM CDT (9/17)
Length of Visible Light 13h 05m
Length of Day
12h 16m
Waxing Gibbous, 96% of the Moon is Illuminated
Sep 17
Waxing Gibbous
Sep 19
Full
Sep 26
Last Quarter
Oct 4
New
Oct 11
First Quarter

Hourly Weather History & Observations

Time (CDT) Temp. Heat Index Dew Point Humidity Pressure Visibility Wind Dir Wind Speed Gust Speed Precip Events Conditions
12:53 AM 72.0 °F - 71.1 °F 97% 30.05 in 7.0 mi Calm Calm - N/A   Clear
1:53 AM 73.0 °F - 72.0 °F 96% 30.04 in 7.0 mi Calm Calm - N/A   Overcast
2:53 AM 72.0 °F - 71.1 °F 97% 30.04 in 5.0 mi Calm Calm - N/A   Clear
3:53 AM 72.0 °F - 71.1 °F 97% 30.02 in 6.0 mi Calm Calm - N/A   Clear
4:53 AM 72.0 °F - 71.1 °F 97% 30.02 in 7.0 mi North 3.5 mph - N/A   Clear
5:53 AM 72.0 °F - 70.0 °F 93% 30.04 in 8.0 mi ENE 3.5 mph - N/A   Clear
6:53 AM 71.1 °F - 69.1 °F 93% 30.06 in 5.0 mi Calm Calm - N/A   Clear
7:53 AM 75.0 °F - 72.0 °F 90% 30.06 in 8.0 mi NNE 4.6 mph - N/A   Clear
8:53 AM 79.0 °F - 72.0 °F 79% 30.08 in 10.0 mi ENE 4.6 mph - N/A   Clear
9:53 AM 84.0 °F 89.6 °F 72.0 °F 67% 30.09 in 10.0 mi ENE 5.8 mph - N/A   Clear
10:53 AM 88.0 °F 93.8 °F 71.1 °F 57% 30.09 in 10.0 mi NE 8.1 mph - N/A   Clear
11:53 AM 91.0 °F 97.6 °F 71.1 °F 52% 30.08 in 10.0 mi NE 9.2 mph - N/A   Clear
12:53 PM 90.0 °F 96.9 °F 72.0 °F 55% 30.06 in 10.0 mi SSE 6.9 mph - N/A   Scattered Clouds
1:53 PM 88.0 °F 93.8 °F 71.1 °F 57% 30.03 in 10.0 mi ENE 4.6 mph - N/A   Scattered Clouds
2:53 PM 88.0 °F 97.5 °F 75.0 °F 65% 30.01 in 10.0 mi Calm Calm - N/A   Partly Cloudy
3:53 PM 89.1 °F 97.0 °F 73.0 °F 59% 29.99 in 10.0 mi East 4.6 mph - N/A   Partly Cloudy
4:53 PM 89.1 °F 97.0 °F 73.0 °F 59% 29.99 in 10.0 mi SE 10.4 mph - N/A Thunderstorm Clear
5:53 PM 78.1 °F - 73.0 °F 84% 30.00 in 10.0 mi NNE 9.2 mph - 0.00 in Rain , Thunderstorm Light Rain
6:31 PM 75.2 °F - 71.6 °F 89% 29.99 in 1.8 mi ENE 23.0 mph 29.9 mph 0.11 in Rain , Thunderstorm Heavy Thunderstorms and Rain
6:45 PM 73.4 °F - 71.6 °F 94% 29.99 in 5.0 mi Calm Calm - 0.25 in Rain Rain
6:53 PM 73.9 °F - 73.0 °F 97% 29.99 in 5.0 mi WSW 3.5 mph - 0.26 in Rain Light Rain
7:53 PM 73.0 °F - 72.0 °F 96% 30.01 in 10.0 mi Calm Calm - 0.00 in   Clear
8:53 PM 73.0 °F - 72.0 °F 96% 30.02 in 9.0 mi Calm Calm - N/A   Clear
9:53 PM 73.0 °F - 72.0 °F 96% 30.04 in 8.0 mi Calm Calm - N/A   Partly Cloudy
10:53 PM 73.0 °F - 73.0 °F 100% 30.04 in 8.0 mi Calm Calm - N/A   Partly Cloudy
11:53 PM 75.0 °F - 73.9 °F 96% 30.04 in 10.0 mi NE 5.8 mph - N/A   Scattered Clouds